This demonstration page uses our WeatherBlox Daily Observations layout. Learn more.

38.88101, -77.10428

Hourly Observations for April 7, 2018

Temp ( °F °C ) Dew Point ( °F °C ) Humidity (%) Winds ( mph kmh ) Pressure ( in mb ) Visibility ( mi km ) Precip ( " mm )
12:52 am 00:52 Cloudy 67 19.4 37 2.8 33 33 SSW 17 28 29.68 1005 10 16.0934 0 0
1:28 am 01:28 Cloudy 63 17.2 35 1.7 35 35 NW 16 26 29.71 1006 10 16.0934 0 0
1:52 am 01:52 Mostly Cloudy 60 15.6 36 2.2 41 41 NNW 20 31 29.72 1007 10 16.0934 0 0
2:52 am 02:52 Mostly Cloudy 56 13.3 38 3.3 51 51 NW 18 30 29.75 1007 10 16.0934 0 0
3:52 am 03:52 Cloudy 53 11.7 35 1.7 51 51 NNW 17 28 29.78 1009 10 16.0934 0 0
4:52 am 04:52 Cloudy 51 10.6 31 -0.6 46 46 NNW 23 37 29.81 1010 10 16.0934 0 0
5:52 am 05:52 Cloudy 49 9.4 30 -1.1 48 48 NNW 17 28 29.84 1011 10 16.0934 0 0
6:52 am 06:52 Cloudy 46 7.8 29 -1.7 51 51 NNW 18 30 29.88 1012 10 16.0934 0 0
7:23 am 07:23 Cloudy with Light Rain 44 6.7 32 0 63 63 N 17 28 29.91 1013 10 16.0934 0 0.0254
7:52 am 07:52 Cloudy 44 6.7 29 -1.7 55 55 N 20 31 29.91 1013 10 16.0934 0 0.0254
8:52 am 08:52 Cloudy 44 6.7 24 -4.4 45 45 NNW 18 30 29.93 1014 10 16.0934 0 0
9:52 am 09:52 Cloudy 42 5.6 26 -3.3 53 53 N 18 30 29.95 1014 10 16.0934 0 0
10:52 am 10:52 Cloudy 42 5.6 24 -4.4 49 49 N 15 24 29.97 1015 10 16.0934 0 0
11:52 am 11:52 Cloudy 42 5.6 24 -4.4 49 49 N 13 20 29.98 1015 10 16.0934 0 0
12:52 pm 12:52 Cloudy 43 6.1 19 -7.2 38 38 NNW 14 22 29.97 1015 10 16.0934 0 0
1:52 pm 13:52 Cloudy 43 6.1 18 -7.8 37 37 N 15 24 29.95 1014 10 16.0934 0 0
2:52 pm 14:52 Cloudy 44 6.7 15 -9.4 31 31 NNW 10 17 29.95 1014 10 16.0934 0 0
3:52 pm 15:52 Cloudy 43 6.1 15 -9.4 32 32 VRB 7 11 29.93 1014 10 16.0934 0 0
4:52 pm 16:52 Cloudy 43 6.1 14 -10 31 31 N 8 13 29.94 1014 10 16.0934 0 0
5:11 pm 17:11 Cloudy with Light Rain/Snow 43 6.1 17 -8.3 35 35 N 15 24 29.97 1015 10 16.0934 0 0.0254
5:52 pm 17:52 Cloudy 41 5 21 -6.1 45 45 N 9 15 29.96 1014 9 14.48406 0 0.0254
6:52 pm 18:52 Cloudy 41 5 19 -7.2 41 41 NNW 8 13 29.95 1014 10 16.0934 0 0.0254
7:52 pm 19:52 Cloudy 41 5 20 -6.7 43 43 NE 6 9 29.95 1014 10 16.0934 0 0
8:52 pm 20:52 Cloudy 41 5 21 -6.1 45 45 ESE 3 6 29.95 1014 10 16.0934 0 0
9:04 pm 21:04 Cloudy 41 5 20 -6.7 43 43 Calm 29.94 1014 10 16.0934 0 0
9:52 pm 21:52 Cloudy 40 4.4 24 -4.4 53 53 S 8 13 29.95 1014 10 16.0934 0 0
10:52 pm 22:52 Cloudy 38 3.3 26 -3.3 62 62 SSW 9 15 29.95 1014 10 16.0934 0 0
11:52 pm 23:52 Cloudy 37 2.8 28 -2.2 70 70 WSW 7 11 29.93 1014 10 16.0934 0 0

Powered by AerisWeather